EW9368 Weather Reports


time (UTC)temp
C
wind
direction
speed
KPH
gust
KPH
rain 1hr
cm
rain 24hr
cm
rain mn
cm
humidity
%
barometer
mb
20260504081552 10 334 9.7 22.5 0.00 0.00 0.00 65 998.3
20260504070140 12 242 29.0 37.0 0.00 0.00 0.00 60 995.7
20260504050020 13 240 29.0 40.2 0.00 0.00 0.00 51 997.6
20260504044521 13 261 32.2 40.2 0.00 0.00 0.00 49 997.7
20260504043022 14 244 32.2 41.8 0.00 0.00 0.00 48 997.9
20260504041511 14 234 32.2 43.5 0.00 0.00 0.00 48 998.1
20260504040010 14 239 32.2 41.8 0.00 0.00 0.00 47 998.2
20260504034507 14 236 24.1 33.8 0.00 0.00 0.00 48 998.6
20260504033007 13 248 19.3 27.4 0.00 0.00 0.00 52 998.9
20260504031503 11 264 3.2 11.3 0.00 0.00 0.00 59 999.1
20260504030122 11 149 3.2 6.4 0.00 0.00 0.00 58 999.4
20260504024602 12 174 3.2 9.7 0.00 0.00 0.00 56 999.6
20260504023100 12 241 3.2 8.0 0.00 0.00 0.00 56 999.6
20260504021558 12 198 3.2 6.4 0.00 0.00 0.00 53 999.7
20260504020106 13 194 3.2 6.4 0.00 0.00 0.00 50 999.9
20260504014558 15 138 1.6 9.7 0.00 0.00 0.00 45 1000.1
20260504013054 16 246 6.4 16.1 0.00 0.00 0.00 40 1000.4
20260504011548 17 222 12.9 20.9 0.00 0.00 0.00 38 1000.7
20260504010044 18 247 16.1 25.7 0.00 0.00 0.00 35 1001.1
20260504004542 19 239 17.7 25.7 0.00 0.00 0.00 32 1001.4
20260504003039 20 238 20.9 29.0 0.00 0.00 0.00 32 1001.8
20260504001543 20 259 20.9 37.0 0.00 0.00 0.00 28 1002.0
20260504000033 21 274 24.1 37.0 0.00 0.00 0.00 26 1002.5
20260503234532 21 276 29.0 38.6 0.00 0.00 0.00 25 1002.7
20260503233036 21 266 25.7 38.6 0.00 0.00 0.00 24 1002.8
20260503231529 21 259 25.7 37.0 0.00 0.00 0.00 26 1002.9
20260503230027 21 246 24.1 41.8 0.00 0.00 0.00 23 1003.2
20260503224525 21 271 33.8 41.8 0.00 0.00 0.00 24 1003.4
20260503223023 21 270 32.2 45.1 0.00 0.00 0.00 24 1003.5
20260503221521 21 265 37.0 48.3 0.00 0.00 0.00 25 1003.8
20260503220019 21 255 32.2 48.3 0.00 0.00 0.00 24 1004.1
20260503214516 21 240 29.0 40.2 0.00 0.00 0.00 24 1004.3
20260503213015 21 269 20.9 33.8 0.00 0.00 0.00 26 1004.7
20260503211513 20 257 20.9 48.3 0.00 0.00 0.00 24 1004.9
20260503210015 21 249 19.3 27.4 0.00 0.00 0.00 26 1005.3
20260503204506 20 252 20.9 29.0 0.00 0.00 0.00 27 1005.6
20260503203003 20 255 24.1 38.6 0.00 0.00 0.00 28 1005.8
20260503201502 21 278 9.7 32.2 0.00 0.00 0.00 29 1006.1
20260503200059 20 271 14.5 37.0 0.00 0.00 0.00 27 1006.4
20260503194554 20 288 25.7 38.6 0.00 0.00 0.00 29 1006.8
20260503193107 19 248 12.9 25.7 0.00 0.00 0.00 29 1006.9
20260503191553 19 294 19.3 25.7 0.00 0.00 0.00 28 1007.3
20260503184547 19 259 12.9 27.4 0.00 0.00 0.00 29 1007.9
20260503183057 20 48 4.8 16.1 0.00 0.00 0.00 33 1007.9
20260503181543 19 341 8.0 20.9 0.00 0.00 0.00 32 1008.5
20260503180052 18 284 4.8 17.7 0.00 0.00 0.00 33 1008.6
20260503174541 18 322 9.7 22.5 0.00 0.00 0.00 34 1009.0
20260503173058 18 271 4.8 17.7 0.00 0.00 0.00 34 1009.2
20260503171543 18 304 4.8 17.7 0.00 0.00 0.00 34 1009.4
20260503140113 10 300 1.6 12.9 0.00 0.00 0.00 67 1010.6